Torna al catalogo

ATLAS 5 CENTAUR R/B

AttivoMEO
NORAD 40731·ROCKET BODY·🇺🇸 United States

Lanciato Jul 15, 2015 da Cape Canaveral Space Force Station

Loading…

Prossimi Passaggi (prossime 24 ore)

TLE

AggiornatoSource: Space-Track

Epoca: Sep 13, 2026, 00:06 UTC

1 40731U 15033B   26256.00426502 -.00000032  00000-0  00000-0 0  9993
2 40731  54.4844 280.8993 0239156  13.3784 347.2905  1.90866669 77822

Traccia ATLAS 5 CENTAUR R/B in tempo reale con AllMySat

Download on the App Store